Tracking 25963 objects as of 13-Aug-2022
HD Live streaming from Space Station
objects crossing your sky now

STARLINK-2150

Track STARLINK-2150 now!
10-day predictions
STARLINK-2150 is classified as:


NORAD ID: 47739
Int'l Code: 2021-017T
Perigee: 553.5 km
Apogee: 555.1 km
Inclination: 53.1 °
Period: 95.6 minutes
Semi major axis: 6925 km
RCS: Unknown
Launch date: March 4, 2021
Source: United States (US)
Launch site: AIR FORCE EASTERN TEST RANGE (AFETR)
aabbcc
Your satellite tracking list
Your tracking list is empty




NASA's NSSDC Master Catalog

Two Line Element Set (TLE):
1 47739U 21017T   22224.72763853  .00011849  00000-0  81269-3 0  9996
2 47739  53.0543 324.8358 0001174  89.7749 270.3375 15.06413837 80881
Source of the keplerian elements: AFSPC